Year,Month,Day,Hour,Minute,Value (Times are PST for temperature in C)
2019,09,29,00,00,11.90
2019,09,29,00,01,11.80
2019,09,29,00,02,11.80
2019,09,29,00,03,11.80
2019,09,29,00,04,11.80
2019,09,29,00,05,11.80
2019,09,29,00,06,11.80
2019,09,29,00,07,11.70
2019,09,29,00,08,11.70
2019,09,29,00,09,11.70
2019,09,29,00,10,11.70
2019,09,29,00,11,11.70
2019,09,29,00,12,11.60
2019,09,29,00,13,11.60
2019,09,29,00,14,11.60
2019,09,29,00,15,11.60
2019,09,29,00,16,11.60
2019,09,29,00,17,11.60
2019,09,29,00,18,11.60
2019,09,29,00,19,11.50
2019,09,29,00,20,11.50
2019,09,29,00,21,11.50
2019,09,29,00,22,11.50
2019,09,29,00,23,11.50
2019,09,29,00,24,11.50
2019,09,29,00,25,11.50
2019,09,29,00,26,11.50
2019,09,29,00,27,11.40
2019,09,29,00,28,11.40
2019,09,29,00,29,11.40
2019,09,29,00,30,11.40
2019,09,29,00,31,11.40
2019,09,29,00,32,11.40
2019,09,29,00,33,11.40
2019,09,29,00,34,11.40
2019,09,29,00,35,11.30
2019,09,29,00,36,11.30
2019,09,29,00,37,11.30
2019,09,29,00,38,11.30
2019,09,29,00,39,11.30
2019,09,29,00,40,11.20
2019,09,29,00,41,11.20
2019,09,29,00,42,11.20
2019,09,29,00,43,11.20
2019,09,29,00,44,11.20
2019,09,29,00,45,11.20
2019,09,29,00,46,11.20
2019,09,29,00,47,11.20
2019,09,29,00,48,11.20
2019,09,29,00,49,11.20
2019,09,29,00,50,11.20
2019,09,29,00,51,11.20
2019,09,29,00,52,11.20
2019,09,29,00,53,11.20
2019,09,29,00,54,11.20
2019,09,29,00,55,11.10
2019,09,29,00,56,11.10
2019,09,29,00,57,11.10
2019,09,29,00,58,11.10
2019,09,29,00,59,11.10
2019,09,29,01,00,11.20
2019,09,29,01,01,11.20
2019,09,29,01,02,11.20
2019,09,29,01,03,11.20
2019,09,29,01,04,11.20
2019,09,29,01,05,11.20
2019,09,29,01,06,11.20
2019,09,29,01,07,11.20
2019,09,29,01,08,11.20
2019,09,29,01,09,11.20
2019,09,29,01,10,11.20
2019,09,29,01,11,11.20
2019,09,29,01,12,11.20
2019,09,29,01,13,11.30
2019,09,29,01,14,11.30
2019,09,29,01,15,11.30
2019,09,29,01,16,11.30
2019,09,29,01,17,11.30
2019,09,29,01,18,11.30
2019,09,29,01,19,11.30
2019,09,29,01,20,11.30
2019,09,29,01,21,11.30
2019,09,29,01,22,11.30
2019,09,29,01,23,11.30
2019,09,29,01,24,11.30
2019,09,29,01,25,11.30
2019,09,29,01,26,11.30
2019,09,29,01,27,11.30
2019,09,29,01,28,11.40
2019,09,29,01,29,11.40
2019,09,29,01,30,11.40
2019,09,29,01,31,11.40
2019,09,29,01,32,11.40
2019,09,29,01,33,11.40
2019,09,29,01,34,11.30
2019,09,29,01,35,11.30
2019,09,29,01,36,11.30
2019,09,29,01,37,11.30
2019,09,29,01,38,11.30
2019,09,29,01,39,11.30
2019,09,29,01,40,11.30
2019,09,29,01,41,11.30
2019,09,29,01,42,11.30
2019,09,29,01,43,11.20
2019,09,29,01,44,11.20
2019,09,29,01,45,11.20
2019,09,29,01,46,11.20
2019,09,29,01,47,11.20
2019,09,29,01,48,11.20
2019,09,29,01,49,11.20
2019,09,29,01,50,11.20
2019,09,29,01,51,11.20
2019,09,29,01,52,11.20
2019,09,29,01,53,11.20
2019,09,29,01,54,11.20
2019,09,29,01,55,11.20
2019,09,29,01,56,11.20
2019,09,29,01,57,11.20
2019,09,29,01,58,11.20
2019,09,29,01,59,11.20
2019,09,29,02,00,11.20
2019,09,29,02,01,11.20
2019,09,29,02,02,11.20
2019,09,29,02,03,11.20
2019,09,29,02,04,11.20
2019,09,29,02,05,11.20
2019,09,29,02,06,11.20
2019,09,29,02,07,11.20
2019,09,29,02,08,11.20
2019,09,29,02,09,11.20
2019,09,29,02,10,11.20
2019,09,29,02,11,11.20
2019,09,29,02,12,11.20
2019,09,29,02,13,11.30
2019,09,29,02,14,11.30
2019,09,29,02,15,11.30
2019,09,29,02,16,11.30
2019,09,29,02,17,11.30
2019,09,29,02,18,11.30
2019,09,29,02,19,11.30
2019,09,29,02,20,11.30
2019,09,29,02,21,11.30
2019,09,29,02,22,11.30
2019,09,29,02,23,11.30
2019,09,29,02,24,11.30
2019,09,29,02,25,11.30
2019,09,29,02,26,11.30
2019,09,29,02,27,11.30
2019,09,29,02,28,11.30
2019,09,29,02,29,11.30
2019,09,29,02,30,11.30
2019,09,29,02,31,11.30
2019,09,29,02,32,11.30
2019,09,29,02,33,11.30
2019,09,29,02,34,11.30
2019,09,29,02,35,11.30
2019,09,29,02,36,11.30
2019,09,29,02,37,11.30
2019,09,29,02,38,11.30
2019,09,29,02,39,11.30
2019,09,29,02,40,11.30
2019,09,29,02,41,11.30
2019,09,29,02,42,11.30
2019,09,29,02,43,11.30
2019,09,29,02,44,11.30
2019,09,29,02,45,11.30
2019,09,29,02,46,11.40
2019,09,29,02,47,11.40
2019,09,29,02,48,11.40
2019,09,29,02,49,11.40
2019,09,29,02,50,11.40
2019,09,29,02,51,11.40
2019,09,29,02,52,11.40
2019,09,29,02,53,11.50
2019,09,29,02,54,11.50
2019,09,29,02,55,11.50
2019,09,29,02,56,11.50
2019,09,29,02,57,11.50
2019,09,29,02,58,11.50
2019,09,29,02,59,11.60
2019,09,29,03,00,11.50
2019,09,29,03,01,11.50
2019,09,29,03,02,11.50
2019,09,29,03,03,11.50
2019,09,29,03,04,11.50
2019,09,29,03,05,11.50
2019,09,29,03,06,11.60
2019,09,29,03,07,11.60
2019,09,29,03,08,11.60
2019,09,29,03,09,11.50
2019,09,29,03,10,11.50
2019,09,29,03,11,11.50
2019,09,29,03,12,11.50
2019,09,29,03,13,11.50
2019,09,29,03,14,11.50
2019,09,29,03,15,11.50
2019,09,29,03,16,11.50
2019,09,29,03,17,11.50
2019,09,29,03,18,11.50
2019,09,29,03,19,11.50
2019,09,29,03,20,11.50
2019,09,29,03,21,11.60
2019,09,29,03,22,11.60
2019,09,29,03,23,11.60
2019,09,29,03,24,11.60
2019,09,29,03,25,11.60
2019,09,29,03,26,11.60
2019,09,29,03,27,11.60
2019,09,29,03,28,11.70
2019,09,29,03,29,11.70
2019,09,29,03,30,11.70
2019,09,29,03,31,11.70
2019,09,29,03,32,11.70
2019,09,29,03,33,11.70
2019,09,29,03,34,11.70
2019,09,29,03,35,11.70
2019,09,29,03,36,11.70
2019,09,29,03,37,11.70
2019,09,29,03,38,11.70
2019,09,29,03,39,11.70
2019,09,29,03,40,11.70
2019,09,29,03,41,11.70
2019,09,29,03,42,11.70
2019,09,29,03,43,11.70
2019,09,29,03,44,11.80
2019,09,29,03,45,11.70
2019,09,29,03,46,11.70
2019,09,29,03,47,11.70
2019,09,29,03,48,11.70
2019,09,29,03,49,11.70
2019,09,29,03,50,11.70
2019,09,29,03,51,11.70
2019,09,29,03,52,11.70
2019,09,29,03,53,11.70
2019,09,29,03,54,11.70
2019,09,29,03,55,11.70
2019,09,29,03,56,11.70
2019,09,29,03,57,11.70
2019,09,29,03,58,11.70
2019,09,29,03,59,11.70
2019,09,29,04,00,11.70
2019,09,29,04,01,11.70
2019,09,29,04,02,11.70
2019,09,29,04,03,11.70
2019,09,29,04,04,11.70
2019,09,29,04,05,11.70
2019,09,29,04,06,11.70
2019,09,29,04,07,11.60
2019,09,29,04,08,11.60
2019,09,29,04,09,11.60
2019,09,29,04,10,11.60
2019,09,29,04,11,11.60
2019,09,29,04,12,11.60
2019,09,29,04,13,11.60
2019,09,29,04,14,11.60
2019,09,29,04,15,11.60
2019,09,29,04,16,11.60
2019,09,29,04,17,11.50
2019,09,29,04,18,11.50
2019,09,29,04,19,11.50
2019,09,29,04,20,11.50
2019,09,29,04,21,11.50
2019,09,29,04,22,11.50
2019,09,29,04,23,11.40
2019,09,29,04,24,11.40
2019,09,29,04,25,11.40
2019,09,29,04,26,11.40
2019,09,29,04,27,11.40
2019,09,29,04,28,11.40
2019,09,29,04,29,11.40
2019,09,29,04,30,11.40
2019,09,29,04,31,11.40
2019,09,29,04,32,11.40
2019,09,29,04,33,11.40
2019,09,29,04,34,11.40
2019,09,29,04,35,11.40
2019,09,29,04,36,11.40
2019,09,29,04,37,11.40
2019,09,29,04,38,11.40
2019,09,29,04,39,11.40
2019,09,29,04,40,11.40
2019,09,29,04,41,11.40
2019,09,29,04,42,11.40
2019,09,29,04,43,11.40
2019,09,29,04,44,11.40
2019,09,29,04,45,11.40
2019,09,29,04,46,11.40
2019,09,29,04,47,11.40
2019,09,29,04,48,11.40
2019,09,29,04,49,11.40
2019,09,29,04,50,11.40
2019,09,29,04,51,11.40
2019,09,29,04,52,11.40
2019,09,29,04,53,11.40
2019,09,29,04,54,11.30
2019,09,29,04,55,11.30
2019,09,29,04,56,11.30
2019,09,29,04,57,11.30
2019,09,29,04,58,11.30
2019,09,29,04,59,11.30
2019,09,29,05,00,11.30
2019,09,29,05,01,11.30
2019,09,29,05,02,11.30
2019,09,29,05,03,11.30
2019,09,29,08,09,11.10
2019,09,29,08,10,11.10
2019,09,29,08,11,11.10
2019,09,29,08,12,11.10
2019,09,29,08,13,11.10
2019,09,29,08,14,11.20
2019,09,29,08,15,11.20
2019,09,29,08,16,11.20
2019,09,29,08,17,11.20
2019,09,29,08,18,11.20
2019,09,29,08,19,11.20
2019,09,29,08,20,11.20
2019,09,29,08,21,11.20
2019,09,29,08,22,11.20
2019,09,29,08,23,11.20
2019,09,29,08,24,11.20
2019,09,29,08,25,11.20
2019,09,29,08,26,11.30
2019,09,29,08,27,11.30
2019,09,29,08,28,11.30
2019,09,29,08,29,11.30
2019,09,29,08,30,11.30
2019,09,29,08,31,11.30
2019,09,29,08,32,11.30
2019,09,29,08,33,11.30
2019,09,29,08,34,11.30
2019,09,29,08,35,11.30
2019,09,29,08,36,11.30
2019,09,29,08,37,11.30
2019,09,29,08,38,11.30
2019,09,29,08,39,11.30
2019,09,29,08,40,11.30
2019,09,29,08,41,11.30
2019,09,29,08,42,11.30
2019,09,29,08,43,11.30
2019,09,29,08,44,11.30
2019,09,29,08,45,11.30
2019,09,29,08,46,11.30
2019,09,29,08,47,11.30
2019,09,29,08,48,11.20
2019,09,29,08,49,11.20
2019,09,29,08,50,11.20
2019,09,29,08,51,11.20
2019,09,29,08,52,11.20
2019,09,29,08,53,11.20
2019,09,29,08,54,11.20
2019,09,29,08,55,11.20
2019,09,29,08,56,11.20
2019,09,29,08,57,11.20
2019,09,29,08,58,11.20
2019,09,29,08,59,11.20
2019,09,29,09,00,11.20
2019,09,29,09,01,11.20
2019,09,29,09,02,11.20
2019,09,29,09,03,11.20
2019,09,29,09,04,11.20
2019,09,29,09,05,11.20
2019,09,29,09,06,11.20
2019,09,29,09,07,11.20
2019,09,29,09,08,11.20
2019,09,29,09,09,11.20
2019,09,29,09,10,11.20
2019,09,29,09,11,11.20
2019,09,29,09,12,11.20
2019,09,29,09,13,11.20
2019,09,29,09,14,11.20
2019,09,29,09,15,11.20
2019,09,29,09,16,11.20
2019,09,29,09,17,11.20
2019,09,29,09,18,11.20
2019,09,29,09,19,11.20
2019,09,29,09,20,11.20
2019,09,29,09,21,11.20
2019,09,29,09,22,11.30
2019,09,29,09,23,11.30
2019,09,29,09,24,11.30
2019,09,29,09,25,11.30
2019,09,29,09,26,11.30
2019,09,29,09,27,11.30
2019,09,29,09,28,11.30
2019,09,29,09,29,11.30
2019,09,29,09,30,11.30
2019,09,29,09,31,11.30
2019,09,29,09,32,11.40
2019,09,29,09,33,11.40
2019,09,29,09,34,11.40
2019,09,29,09,35,11.40
2019,09,29,09,36,11.40
2019,09,29,09,37,11.40
2019,09,29,09,38,11.40
2019,09,29,09,39,11.50
2019,09,29,09,40,11.50
2019,09,29,09,41,11.50
2019,09,29,09,42,11.50
2019,09,29,09,43,11.50
2019,09,29,09,44,11.50
2019,09,29,09,45,11.50
2019,09,29,09,46,11.60
2019,09,29,09,47,11.60
2019,09,29,09,48,11.60
2019,09,29,09,49,11.60
2019,09,29,09,50,11.60
2019,09,29,09,51,11.60
2019,09,29,09,52,11.60
2019,09,29,09,53,11.60
2019,09,29,09,54,11.60
2019,09,29,09,55,11.60
2019,09,29,09,56,11.60
2019,09,29,09,57,11.60
2019,09,29,09,58,11.60
2019,09,29,09,59,11.60
2019,09,29,10,00,11.60
2019,09,29,10,01,11.60
2019,09,29,10,02,11.60
2019,09,29,10,03,11.60
2019,09,29,10,04,11.60
2019,09,29,10,05,11.60
2019,09,29,10,06,11.60
2019,09,29,10,07,11.60
2019,09,29,10,08,11.70
2019,09,29,10,09,11.70
2019,09,29,10,10,11.70
2019,09,29,10,11,11.70
2019,09,29,10,12,11.70
2019,09,29,10,13,11.70
2019,09,29,10,14,11.70
2019,09,29,10,15,11.70
2019,09,29,10,16,11.80
2019,09,29,10,17,11.80
2019,09,29,10,18,11.80
2019,09,29,10,19,11.80
2019,09,29,10,20,11.90
2019,09,29,10,21,11.90
2019,09,29,10,22,11.90
2019,09,29,10,23,11.90
2019,09,29,10,24,11.90
2019,09,29,10,25,11.90
2019,09,29,10,26,11.90
2019,09,29,10,27,11.90
2019,09,29,10,28,11.90
2019,09,29,10,29,11.90
2019,09,29,10,30,11.90
2019,09,29,10,31,11.90
2019,09,29,10,32,11.90
2019,09,29,10,33,11.90
2019,09,29,10,34,11.90
2019,09,29,10,35,11.90
2019,09,29,10,36,11.90
2019,09,29,10,37,11.90
2019,09,29,10,38,11.90
2019,09,29,10,39,11.90
2019,09,29,10,40,11.90
2019,09,29,10,41,11.90
2019,09,29,10,42,11.90
2019,09,29,10,43,11.90
2019,09,29,10,44,11.90
2019,09,29,10,45,11.90
2019,09,29,10,46,11.90
2019,09,29,10,47,11.90
2019,09,29,10,48,11.90
2019,09,29,10,49,11.90
2019,09,29,10,50,11.90
2019,09,29,10,51,11.90
2019,09,29,10,52,11.90
2019,09,29,10,53,11.90
2019,09,29,10,54,11.90
2019,09,29,10,55,11.90
2019,09,29,10,56,12.00
2019,09,29,10,57,12.00
2019,09,29,10,58,12.00
2019,09,29,10,59,12.00
2019,09,29,11,00,12.00
2019,09,29,11,01,12.00
2019,09,29,11,02,12.10
2019,09,29,11,03,12.00
2019,09,29,11,04,12.10
2019,09,29,11,05,12.10
2019,09,29,11,06,12.10
2019,09,29,11,07,12.10
2019,09,29,11,08,12.10
2019,09,29,11,09,12.10
2019,09,29,11,10,12.10
2019,09,29,11,11,12.10
2019,09,29,11,12,12.10
2019,09,29,11,13,12.10
2019,09,29,11,14,12.10
2019,09,29,11,15,12.10
2019,09,29,11,16,12.10
2019,09,29,11,17,12.20
2019,09,29,11,18,12.20
2019,09,29,11,19,12.20
2019,09,29,11,20,12.20
2019,09,29,11,21,12.20
2019,09,29,11,22,12.20
2019,09,29,11,23,12.20
2019,09,29,11,24,12.20
2019,09,29,11,25,12.20
2019,09,29,11,26,12.20
2019,09,29,11,27,12.20
2019,09,29,11,28,12.20
2019,09,29,11,29,12.30
2019,09,29,11,30,12.30
2019,09,29,11,31,12.30
2019,09,29,11,32,12.30
2019,09,29,11,33,12.30
2019,09,29,11,34,12.30
2019,09,29,11,35,12.30
2019,09,29,11,36,12.30
2019,09,29,11,37,12.30
2019,09,29,11,38,12.30
2019,09,29,11,39,12.30
2019,09,29,11,40,12.30
2019,09,29,11,41,12.30
2019,09,29,11,42,12.30
2019,09,29,11,43,12.30
2019,09,29,11,44,12.30
2019,09,29,11,45,12.30
2019,09,29,11,46,12.30
2019,09,29,11,47,12.30
2019,09,29,11,48,12.30
2019,09,29,11,49,12.30
2019,09,29,11,50,12.30
2019,09,29,11,51,12.30
2019,09,29,11,52,12.30
2019,09,29,11,53,12.30
2019,09,29,11,54,12.30
2019,09,29,11,55,12.40
2019,09,29,11,56,12.40
2019,09,29,11,57,12.40
2019,09,29,11,58,12.40
2019,09,29,11,59,12.40
2019,09,29,12,00,12.40
2019,09,29,12,01,12.50
2019,09,29,12,02,12.50
2019,09,29,12,03,12.50
2019,09,29,12,04,12.50
2019,09,29,12,05,12.60
2019,09,29,12,06,12.60
2019,09,29,12,07,12.60
2019,09,29,12,08,12.70
2019,09,29,12,09,12.70
2019,09,29,12,10,12.70
2019,09,29,12,11,12.70
2019,09,29,12,12,12.70
2019,09,29,12,13,12.70
2019,09,29,12,14,12.70
2019,09,29,12,15,12.70
2019,09,29,12,16,12.70
2019,09,29,12,17,12.70
2019,09,29,12,18,12.70
2019,09,29,12,19,12.60
2019,09,29,12,20,12.60
2019,09,29,12,21,12.60
2019,09,29,12,22,12.60
2019,09,29,12,23,12.60
2019,09,29,12,24,12.60
2019,09,29,12,25,12.60
2019,09,29,12,26,12.60
2019,09,29,12,27,12.60
2019,09,29,12,28,12.50
2019,09,29,12,29,12.50
2019,09,29,12,30,12.50
2019,09,29,12,31,12.50
2019,09,29,12,32,12.50
2019,09,29,12,33,12.50
2019,09,29,12,34,12.50
2019,09,29,12,35,12.50
2019,09,29,12,36,12.50
2019,09,29,12,37,12.60
2019,09,29,12,38,12.60
2019,09,29,12,39,12.60
2019,09,29,12,40,12.60
2019,09,29,12,41,12.60
2019,09,29,12,42,12.70
2019,09,29,12,43,12.70
2019,09,29,12,44,12.70
2019,09,29,12,45,12.70
2019,09,29,12,46,12.70
2019,09,29,12,47,12.80
2019,09,29,12,48,12.80
2019,09,29,12,49,12.80
2019,09,29,12,50,12.80
2019,09,29,12,51,12.80
2019,09,29,12,52,12.80
2019,09,29,12,53,12.80
2019,09,29,12,54,12.80
2019,09,29,12,55,12.80
2019,09,29,12,56,12.80
2019,09,29,12,57,12.80
2019,09,29,12,58,12.80
2019,09,29,12,59,12.80
2019,09,29,13,00,12.80
2019,09,29,13,01,12.80
2019,09,29,13,02,12.80
2019,09,29,13,03,12.80
2019,09,29,13,04,12.80
2019,09,29,13,05,12.80
2019,09,29,13,06,12.80
2019,09,29,13,07,12.80
2019,09,29,13,08,12.80
2019,09,29,13,09,12.80
2019,09,29,13,10,12.80
2019,09,29,13,11,12.80
2019,09,29,13,12,12.80
2019,09,29,13,13,12.80
2019,09,29,13,14,12.80
2019,09,29,13,15,12.80
2019,09,29,13,16,12.80
2019,09,29,13,17,12.80
2019,09,29,13,18,12.80
2019,09,29,13,19,12.80
2019,09,29,13,20,12.80
2019,09,29,13,21,12.80
2019,09,29,13,22,12.80
2019,09,29,13,23,12.80
2019,09,29,13,24,12.80
2019,09,29,13,25,12.80
2019,09,29,13,26,12.90
2019,09,29,13,27,12.90
2019,09,29,13,28,12.90
2019,09,29,13,29,13.00
2019,09,29,13,30,13.00
2019,09,29,13,31,13.00
2019,09,29,13,32,13.00
2019,09,29,13,33,13.00
2019,09,29,13,34,13.00
2019,09,29,13,35,13.00
2019,09,29,13,36,13.00
2019,09,29,13,37,13.00
2019,09,29,13,38,13.10
2019,09,29,13,39,13.10
2019,09,29,13,40,13.10
2019,09,29,13,41,13.20
2019,09,29,13,42,13.20
2019,09,29,13,43,13.30
2019,09,29,13,44,13.30
2019,09,29,13,45,13.30
2019,09,29,13,46,13.30
2019,09,29,13,47,13.40
2019,09,29,13,48,13.40
2019,09,29,13,49,13.40
2019,09,29,13,50,13.40
2019,09,29,13,51,13.40
2019,09,29,13,52,13.40
2019,09,29,13,53,13.30
2019,09,29,13,54,13.30
2019,09,29,13,55,13.30
2019,09,29,13,56,13.30
2019,09,29,13,57,13.30
2019,09,29,13,58,13.30
2019,09,29,13,59,13.30
2019,09,29,14,00,13.30
2019,09,29,14,01,13.30
2019,09,29,14,02,13.30
2019,09,29,14,03,13.30
2019,09,29,14,04,13.30
2019,09,29,14,05,13.30
2019,09,29,14,06,13.30
2019,09,29,14,07,13.30
2019,09,29,14,08,13.30
2019,09,29,14,09,13.30
2019,09,29,14,10,13.30
2019,09,29,14,11,13.30
2019,09,29,14,12,13.30
2019,09,29,14,13,13.30
2019,09,29,14,14,13.30
2019,09,29,14,15,13.30
2019,09,29,14,16,13.30
2019,09,29,14,17,13.30
2019,09,29,14,18,13.30
2019,09,29,14,19,13.30
2019,09,29,14,20,13.30
2019,09,29,14,21,13.30
2019,09,29,14,22,13.30
2019,09,29,14,23,13.30
2019,09,29,14,24,13.40
2019,09,29,14,25,13.40
2019,09,29,14,26,13.40
2019,09,29,14,27,13.40
2019,09,29,14,28,13.40
2019,09,29,14,29,13.40
2019,09,29,14,30,13.40
2019,09,29,14,31,13.50
2019,09,29,14,32,13.50
2019,09,29,14,33,13.60
2019,09,29,14,34,13.60
2019,09,29,14,35,13.60
2019,09,29,14,36,13.60
2019,09,29,14,37,13.70
2019,09,29,14,38,13.70
2019,09,29,14,39,13.70
2019,09,29,14,40,13.80
2019,09,29,14,41,13.80
2019,09,29,14,42,13.90
2019,09,29,14,43,13.90
2019,09,29,14,44,13.90
2019,09,29,14,45,13.90
2019,09,29,14,46,13.90
2019,09,29,14,47,14.00
2019,09,29,14,48,14.00
2019,09,29,14,49,14.10
2019,09,29,14,50,14.20
2019,09,29,14,51,14.20
2019,09,29,14,52,14.30
2019,09,29,14,53,14.30
2019,09,29,14,54,14.30
2019,09,29,14,55,14.40
2019,09,29,14,56,14.40
2019,09,29,14,57,14.40
2019,09,29,14,58,14.40
2019,09,29,14,59,14.40
2019,09,29,15,00,14.40
2019,09,29,15,01,14.50
2019,09,29,15,02,14.50
2019,09,29,15,03,14.50
2019,09,29,15,04,14.50
2019,09,29,15,05,14.50
2019,09,29,15,06,14.40
2019,09,29,15,07,14.40
2019,09,29,15,08,14.40
2019,09,29,15,09,14.40
2019,09,29,15,10,14.30
2019,09,29,15,11,14.30
2019,09,29,15,12,14.20
2019,09,29,15,13,14.20
2019,09,29,15,14,14.20
2019,09,29,15,15,14.10
2019,09,29,15,16,14.10
2019,09,29,15,17,14.10
2019,09,29,15,18,14.10
2019,09,29,15,19,14.10
2019,09,29,15,20,14.20
2019,09,29,15,21,14.20
2019,09,29,15,22,14.20
2019,09,29,15,23,14.20
2019,09,29,15,24,14.20
2019,09,29,15,25,14.20
2019,09,29,15,26,14.30
2019,09,29,15,27,14.30
2019,09,29,15,28,14.30
2019,09,29,15,29,14.40
2019,09,29,15,30,14.40
2019,09,29,15,31,14.40
2019,09,29,15,32,14.50
2019,09,29,15,33,14.50
2019,09,29,15,34,14.50
2019,09,29,15,35,14.50
2019,09,29,15,36,14.50
2019,09,29,15,37,14.60
2019,09,29,15,38,14.60
2019,09,29,15,39,14.70
2019,09,29,15,40,14.80
2019,09,29,15,41,14.80
2019,09,29,15,42,14.80
2019,09,29,15,43,14.90
2019,09,29,15,44,14.90
2019,09,29,15,45,14.90
2019,09,29,15,46,15.00
2019,09,29,15,47,15.00
2019,09,29,15,48,14.90
2019,09,29,15,49,14.90
2019,09,29,15,50,14.80
2019,09,29,15,51,14.80
2019,09,29,15,52,14.80
2019,09,29,15,53,14.80
2019,09,29,15,54,14.80
2019,09,29,15,55,14.70
2019,09,29,15,56,14.70
2019,09,29,15,57,14.60
2019,09,29,15,58,14.60
2019,09,29,15,59,14.50
2019,09,29,16,00,14.50
2019,09,29,16,01,14.50
2019,09,29,16,02,14.50
2019,09,29,16,03,14.50
2019,09,29,16,04,14.50
2019,09,29,16,05,14.50
2019,09,29,16,06,14.50
2019,09,29,16,07,14.50
2019,09,29,16,08,14.50
2019,09,29,16,09,14.50
2019,09,29,16,10,14.60
2019,09,29,16,11,14.60
2019,09,29,16,12,14.60
2019,09,29,16,13,14.50
2019,09,29,16,14,14.50
2019,09,29,16,15,14.40
2019,09,29,16,16,14.40
2019,09,29,16,17,14.40
2019,09,29,16,18,14.40
2019,09,29,16,19,14.50
2019,09,29,16,20,14.50
2019,09,29,16,21,14.60
2019,09,29,16,22,14.60
2019,09,29,16,23,14.60
2019,09,29,16,24,14.60
2019,09,29,16,25,14.60
2019,09,29,16,26,14.60
2019,09,29,16,27,14.60
2019,09,29,16,28,14.60
2019,09,29,16,29,14.50
2019,09,29,16,30,14.50
2019,09,29,16,31,14.50
2019,09,29,16,32,14.50
2019,09,29,16,33,14.50
2019,09,29,16,34,14.60
2019,09,29,16,35,14.60
2019,09,29,16,36,14.60
2019,09,29,16,37,14.60
2019,09,29,16,38,14.60
2019,09,29,16,39,14.60
2019,09,29,16,40,14.60
2019,09,29,16,41,14.70
2019,09,29,16,42,14.70
2019,09,29,16,43,14.70
2019,09,29,16,44,14.70
2019,09,29,16,45,14.70
2019,09,29,16,46,14.70
2019,09,29,16,47,14.70
2019,09,29,16,48,14.70
2019,09,29,16,49,14.70
2019,09,29,16,50,14.70
2019,09,29,16,51,14.70
2019,09,29,16,52,14.70
2019,09,29,16,53,14.70
2019,09,29,16,54,14.70
2019,09,29,16,55,14.70
2019,09,29,16,56,14.70
2019,09,29,16,57,14.60
2019,09,29,16,58,14.60
2019,09,29,16,59,14.60
2019,09,29,17,00,14.70
2019,09,29,17,01,14.70
2019,09,29,17,02,14.70
2019,09,29,17,03,14.70
2019,09,29,17,04,14.80
2019,09,29,17,05,14.80
2019,09,29,17,06,14.80
2019,09,29,17,07,14.80
2019,09,29,17,08,14.90
2019,09,29,17,09,14.90
2019,09,29,17,10,14.90
2019,09,29,17,11,14.90
2019,09,29,17,12,14.90
2019,09,29,17,13,14.90
2019,09,29,17,14,14.90
2019,09,29,17,15,14.90
2019,09,29,17,16,14.90
2019,09,29,17,17,14.90
2019,09,29,17,18,14.80
2019,09,29,17,19,14.80
2019,09,29,17,20,14.80
2019,09,29,17,21,14.80
2019,09,29,17,22,14.70
2019,09,29,17,23,14.70
2019,09,29,17,24,14.70
2019,09,29,17,25,14.70
2019,09,29,17,26,14.60
2019,09,29,17,27,14.60
2019,09,29,17,28,14.60
2019,09,29,17,29,14.60
2019,09,29,17,30,14.60
2019,09,29,17,31,14.60
2019,09,29,17,32,14.50
2019,09,29,17,33,14.50
2019,09,29,17,34,14.50
2019,09,29,17,35,14.40
2019,09,29,17,36,14.40
2019,09,29,17,37,14.40
2019,09,29,17,38,14.40
2019,09,29,17,39,14.40
2019,09,29,17,40,14.40
2019,09,29,17,41,14.40
2019,09,29,17,42,14.40
2019,09,29,17,43,14.40
2019,09,29,17,44,14.50
2019,09,29,17,45,14.50
2019,09,29,17,46,14.50
2019,09,29,17,47,14.50
2019,09,29,17,48,14.50
2019,09,29,17,49,14.50
2019,09,29,17,50,14.50
2019,09,29,17,51,14.50
2019,09,29,17,52,14.50
2019,09,29,17,53,14.50
2019,09,29,17,54,14.50
2019,09,29,17,55,14.60
2019,09,29,17,56,14.60
2019,09,29,17,57,14.60
2019,09,29,17,58,14.50
2019,09,29,17,59,14.50
2019,09,29,18,00,14.50
2019,09,29,18,01,14.40
2019,09,29,18,02,14.40
2019,09,29,18,03,14.40
2019,09,29,18,04,14.40
2019,09,29,18,05,14.40
2019,09,29,18,06,14.40
2019,09,29,18,07,14.30
2019,09,29,18,08,14.30
2019,09,29,18,09,14.30
2019,09,29,18,10,14.30
2019,09,29,18,11,14.30
2019,09,29,18,12,14.30
2019,09,29,18,13,14.30
2019,09,29,18,14,14.30
2019,09,29,18,15,14.30
2019,09,29,18,16,14.30
2019,09,29,18,17,14.30
2019,09,29,18,18,14.30
2019,09,29,18,19,14.30
2019,09,29,18,20,14.30
2019,09,29,18,21,14.20
2019,09,29,18,22,14.20
2019,09,29,18,23,14.20
2019,09,29,18,24,14.20
2019,09,29,18,25,14.20
2019,09,29,18,26,14.20
2019,09,29,18,27,14.20
2019,09,29,18,28,14.20
2019,09,29,18,29,14.10
2019,09,29,18,30,14.10
2019,09,29,18,31,14.10
2019,09,29,18,32,14.10
2019,09,29,18,33,14.10
2019,09,29,18,34,14.10
2019,09,29,18,35,14.10
2019,09,29,18,36,14.00
2019,09,29,18,37,14.00
2019,09,29,18,38,14.00
2019,09,29,18,39,14.00
2019,09,29,18,40,13.90
2019,09,29,18,41,13.90
2019,09,29,18,42,13.90
2019,09,29,18,43,13.90
2019,09,29,18,44,13.80
2019,09,29,18,45,13.80
2019,09,29,18,46,13.80
2019,09,29,18,47,13.80
2019,09,29,18,48,13.80
2019,09,29,18,49,13.70
2019,09,29,18,50,13.70
2019,09,29,18,51,13.70
2019,09,29,18,52,13.70
2019,09,29,18,53,13.70
2019,09,29,18,54,13.60
2019,09,29,18,55,13.60
2019,09,29,18,56,13.60
2019,09,29,18,57,13.60
2019,09,29,18,58,13.60
2019,09,29,18,59,13.50
2019,09,29,19,00,13.50
2019,09,29,19,01,13.50
2019,09,29,19,02,13.40
2019,09,29,19,03,13.40
2019,09,29,19,04,13.40
2019,09,29,19,05,13.40
2019,09,29,19,06,13.40
2019,09,29,19,07,13.30
2019,09,29,19,08,13.30
2019,09,29,19,09,13.30
2019,09,29,19,10,13.30
2019,09,29,19,11,13.30
2019,09,29,19,12,13.30
2019,09,29,19,13,13.30
2019,09,29,19,14,13.20
2019,09,29,19,15,13.20
2019,09,29,19,16,13.20
2019,09,29,19,17,13.20
2019,09,29,19,18,13.20
2019,09,29,19,19,13.20
2019,09,29,19,20,13.10
2019,09,29,19,21,13.10
2019,09,29,19,22,13.10
2019,09,29,19,23,13.10
2019,09,29,19,24,13.10
2019,09,29,19,25,13.10
2019,09,29,19,26,13.10
2019,09,29,19,27,13.10
2019,09,29,19,28,13.10
2019,09,29,19,29,13.10
2019,09,29,19,30,13.10
2019,09,29,19,31,13.00
2019,09,29,19,32,13.00
2019,09,29,19,33,13.00
2019,09,29,19,34,13.00
2019,09,29,19,35,13.00
2019,09,29,19,36,13.00
2019,09,29,19,37,13.00
2019,09,29,19,38,13.00
2019,09,29,19,39,13.00
2019,09,29,19,40,13.00
2019,09,29,19,41,13.00
2019,09,29,19,42,13.00
2019,09,29,19,43,13.00
2019,09,29,19,44,13.00
2019,09,29,19,45,12.90
2019,09,29,19,46,12.90
2019,09,29,19,47,12.90
2019,09,29,19,48,12.90
2019,09,29,19,49,12.90
2019,09,29,19,50,12.90
2019,09,29,19,51,12.90
2019,09,29,19,52,12.90
2019,09,29,19,53,12.90
2019,09,29,19,54,12.90
2019,09,29,19,55,12.90
2019,09,29,19,56,12.90
2019,09,29,19,57,12.80
2019,09,29,19,58,12.80
2019,09,29,19,59,12.80
2019,09,29,20,00,12.80
2019,09,29,20,01,12.80
2019,09,29,20,02,12.80
2019,09,29,20,03,12.80
2019,09,29,20,04,12.80
2019,09,29,20,05,12.80
2019,09,29,20,06,12.80
2019,09,29,20,07,12.80
2019,09,29,20,08,12.80
2019,09,29,20,09,12.80
2019,09,29,20,10,12.80
2019,09,29,20,11,12.80
2019,09,29,20,12,12.80
2019,09,29,20,13,12.80
2019,09,29,20,14,12.80
2019,09,29,20,15,12.70
2019,09,29,20,16,12.70
2019,09,29,20,17,12.70
2019,09,29,20,18,12.70
2019,09,29,20,19,12.70
2019,09,29,20,20,12.70
2019,09,29,20,21,12.70
2019,09,29,20,22,12.70
2019,09,29,20,23,12.70
2019,09,29,20,24,12.70